Back to catalog

DELTA 4H R/B

AliveMEO
NORAD 33491·ROCKET BODY·🇺🇸 United States

Launched Jan 18, 2009 from Cape Canaveral Space Force Station

Loading…

Next Passes (next 24 hours)

TLE

FreshSource: Space-Track

Epoch: Sep 14, 2026, 12:23 UTC

1 33491U 09001B   26257.51665071 -.00000168  00000-0  00000-0 0  9999
2 33491   9.8308  34.8166 0262135  67.2984 295.4986  0.96058946 25011

Track DELTA 4H R/B in real time with AllMySat

Download on the App Store